Weather History for Carlsbad, NM

Change the Weather History Date:

Tuesday, March 4, 2014

  Actual Average Record
Temperature  
Mean Temperature 46 °F -  
Max Temperature 66 °F 64 °F 88 °F (2009)
Min Temperature 26 °F 35 °F 16 °F (2002)
Degree Days  
Heating Degree Days 19    
Moisture  
Dew Point 22 °F    
Average Humidity 39    
Maximum Humidity 69    
Minimum Humidity 20    
Precipitation  
Precipitation 0.00 in - - ()
Sea Level Pressure  
Sea Level Pressure 29.91 in    
Wind  
Wind Speed 7 mph (SSE)    
Max Wind Speed 13 mph    
Max Gust Speed -    
Visibility 10 miles    
Events      
Averages and records for this station are not official NWS values.
T = Trace of Precipitation, MM = Missing Value Source: NWS Daily Summary

Daily Weather History Graph

Daily Weather History Graph

Search for Another Location

Airport:

Trip Planner

Search our weather history database for the weather conditions in past years. The results will help you decide how hot, cold, wet, or windy it might be!

Date:

Astronomy

Mar. 04, 2014 Rise Set
Actual Time 6:20 AM MST 5:56 PM MST
Civil Twilight 5:56 AM MST 6:21 PM MST
Nautical Twilight 5:27 AM MST 6:49 PM MST
Astronomical Twilight 4:59 AM MST 7:18 PM MST
Moon 8:22 AM MST (3/4) 9:50 PM MST (3/4)
Length of Visible Light 12h 25m
Length of Day
11h 36m
Waxing Crescent, 15% of the Moon is Illuminated
Mar 4
Waxing Crescent
Mar 8
First Quarter
Mar 16
Full
Mar 23
Last Quarter
Mar 30
New

Hourly Weather History & Observations

Time (MST) Temp. Windchill Dew Point Humidity Pressure Visibility Wind Dir Wind Speed Gust Speed Precip Events Conditions
12:53 AM 33.1 °F 24.4 °F 18.0 °F 54% 30.05 in 10.0 mi SSE 11.5 mph - N/A   Clear
1:53 AM 32.0 °F 25.6 °F 18.0 °F 56% 30.04 in 10.0 mi South 6.9 mph - N/A   Clear
2:53 AM 30.9 °F 26.2 °F 18.0 °F 59% 30.04 in 10.0 mi SE 4.6 mph - N/A   Clear
3:53 AM 27.0 °F - 16.0 °F 63% 30.04 in 10.0 mi Calm Calm - N/A   Clear
4:53 AM 27.0 °F 20.5 °F 17.1 °F 66% 30.04 in 10.0 mi NW 5.8 mph - N/A   Clear
5:53 AM 26.1 °F - 17.1 °F 69% 30.04 in 10.0 mi Calm Calm - N/A   Clear
6:53 AM 28.9 °F - 18.0 °F 64% 30.06 in 10.0 mi Calm Calm - N/A   Clear
7:53 AM 35.1 °F 31.0 °F 18.0 °F 50% 30.04 in 10.0 mi East 4.6 mph - N/A   Clear
8:53 AM 41.0 °F 36.4 °F 19.0 °F 41% 30.04 in 10.0 mi South 6.9 mph - 0.00 in   Clear
9:53 AM 48.0 °F - 19.9 °F 33% 30.01 in 10.0 mi SSE 8.1 mph - N/A   Clear
10:53 AM 54.0 °F - 21.9 °F 29% 29.97 in 10.0 mi SE 10.4 mph - N/A   Clear
11:53 AM 57.9 °F - 21.9 °F 25% 29.92 in 10.0 mi SSE 10.4 mph - N/A   Clear
12:53 PM 62.1 °F - 23.0 °F 22% 29.87 in 10.0 mi SSE 12.7 mph - N/A   Clear
1:53 PM 64.0 °F - 23.0 °F 21% 29.82 in 10.0 mi SE 12.7 mph - N/A   Clear
2:53 PM 66.0 °F - 23.0 °F 20% 29.80 in 10.0 mi SSE 12.7 mph - N/A   Clear
3:53 PM 66.0 °F - 24.1 °F 20% 29.79 in 10.0 mi SSE 10.4 mph - N/A   Clear
4:53 PM 64.0 °F - 24.1 °F 22% 29.78 in 10.0 mi SE 5.8 mph - N/A   Clear
5:53 PM 62.1 °F - 25.0 °F 24% 29.76 in 10.0 mi SE 9.2 mph - N/A   Clear
6:53 PM 57.0 °F - 25.0 °F 29% 29.81 in 10.0 mi SSE 5.8 mph - N/A   Clear
7:53 PM 57.0 °F - 25.0 °F 29% 29.82 in 10.0 mi South 8.1 mph - N/A   Clear
8:53 PM 55.9 °F - 25.0 °F 30% 29.83 in 10.0 mi South 6.9 mph - N/A   Clear
9:53 PM 55.0 °F - 26.1 °F 33% 29.79 in 10.0 mi South 6.9 mph - N/A   Clear
10:53 PM 52.0 °F - 26.1 °F 37% 29.78 in 10.0 mi South 8.1 mph - N/A   Clear
11:53 PM 48.9 °F - 26.1 °F 41% 29.77 in 10.0 mi South 6.9 mph - N/A   Clear